Regional Weather Roundup
Issued by NWS Wakefield, VA

Home | Current Version | Previous Version | Graphics & Text | Print | Product List | Glossary On
Versions: 1 2 3 4 5 6 7 8 9 10 11 12 13 14 15 16 17 18 19 20 21 22 23 24 25 26 27 28 29 30 31 32 33 34 35 36 37 38 39 40 41 42 43 44 45 46 47 48 49 50
651
ASUS41 KAKQ 222216
RWRAKQ

REGIONAL WEATHER ROUNDUP
NATIONAL WEATHER SERVICE WAKEFIELD VA
600 PM EDT MON MAY 22 2017

Note: "fair" indicates few or no clouds below 12,000 feet with no
significant weather and/or obstructions to visibility. * = Denotes
station may not report precipitation (e.g., rain,snow,etc.),
thunder or fog.

VAZ042-051-052>054-056-222300-
NORTHERN VIRGINIA

CITY           SKY/WX    TMP DP  RH WIND       PRES   REMARKS
WASH NATIONAL  CLOUDY    70  64  81 S7        29.96R
DULLES         CLOUDY    72  62  71 CALM      29.95S
FORT BELVOIR   CLOUDY    69  62  77 S5        29.95F
QUANTICO       CLOUDY    69  66  90 S3        29.96S
FREDERICKSBRG* CLOUDY    71  68  91 E6        29.94F
STAFFORD*      CLOUDY    69  66  91 E7        29.99F
WARRENTON      CLOUDY    74  62  65 CALM      29.94S
CULPEPER*      CLOUDY    74  66  77 CALM      29.95S
MANASSAS*        N/A     72  64  76 CALM      29.95F
LEESBURG*      PTSUNNY   72  66  83 W3        29.97S
WINCHESTER     CLOUDY    70  63  78 E6        29.95S
FRONT ROYAL*   CLOUDY    70  64  83 NE6       29.93S
LURAY*         CLOUDY    81  54  39 N8        29.93S
$$

VAZ048-049-060>072-079>083-222300-
CENTRAL AND SOUTH CENTRAL VIRGINIA

CITY           SKY/WX    TMP DP  RH WIND       PRES   REMARKS
RICHMOND       CLOUDY    72  66  81 CALM      29.95S
CHESTERFIELD*  CLOUDY   N/A N/A N/A CALM      29.95F
PETERSBURG*    PTSUNNY   72  65  80 CALM      29.95S
HANOVER        CLOUDY    69  64  84 E3        29.96S
TAPPAHANNOCK*  CLOUDY    71  67  85 CALM      29.96S
QUINTON*       CLOUDY    70  67  91 CALM      29.94F
CHARLOTTSVILLE LGT RAIN  74  70  87 E7        29.93R
GORDONSVILLE*  CLOUDY    74  68  82 S3        29.94S
ORANGE*        CLOUDY    72  66  83 SE5       29.94S
LOUISA*        CLOUDY    75  70  83 CALM      29.94R
BUMPASS*       FAIR      73  68  84 CALM      29.95S
FARMVILLE*     MOSUNNY   79  64  59 CALM      29.92F
CREWE*         FAIR      76  68  74 CALM      29.94F
FORT PICKETT*  FAIR      75  68  78 CALM      29.94F
CHASE CITY*    FAIR      76  69  78 CALM      29.95S
CLARKSVILLE*   FAIR      77  68  73 CALM      29.94F
SOUTH HILL*    MOSUNNY   74  68  80 CALM      30.00F
LAWRENCEVILLE* FAIR      74  67  78 NW3       29.94F
EMPORIA*       CLOUDY    72  66  83 NW5       29.96S
$$

VAZ088>098-222300-
SOUTHEAST VIRGINIA

CITY           SKY/WX    TMP DP  RH WIND       PRES   REMARKS
NORFOLK        PTSUNNY   73  69  87 W10G18    29.90R
VIRGINIA BEACH PTSUNNY   72  67  84 W13       29.88S
NORFOLK NAVAL  NOT AVBL
WEST POINT*    CLOUDY    72  66  80 CALM      29.96R
SALUDA*        FAIR      70  67  90 N5        29.95R
NEWPORT NEWS   CLOUDY    71  68  90 N10       29.92S
LANGLEY AFB    NOT AVBL
FORT EUSTIS    PTSUNNY   74  68  82 NW8       29.91R
WILLIAMSBURG*  PTSUNNY   72  72 100 CALM      29.95R
HR EXEC AP*    CLOUDY    72  68  88 N3        29.91R
FRANKLIN*      CLOUDY    75  69  80 N6        29.93S
US460-WAKEFLD  CLOUDY    73  69  87 NW3       29.94S
$$

VAZ020-022-025-037-045-222300-
WEST CENTRAL AND SOUTHWEST VIRGINIA

CITY           SKY/WX    TMP DP  RH WIND       PRES   REMARKS
STAUNTON*      MOSUNNY   78  56  45 W6        29.96R
WAYNESBORO*    CLOUDY    76  60  56 SW3       29.96S
HOT SPRINGS VA SUNNY     64  39  39 W10       30.08S
LYNCHBURG      MOSUNNY   75  56  51 VRB5      29.96F
DANVILLE       CLOUDY    76  70  82 CALM      29.94F
SOUTH BOSTON*  FAIR      77  63  60 CALM      29.94F
MARTINSVILLE   CLOUDY    74  66  76 CALM      29.99F
ROANOKE        CLOUDY    75  55  49 W8        30.00S
BLACKSBURG     MOSUNNY   71  54  54 NW3       30.06S
DUBLIN*        CLOUDY    73  45  36 NW6       30.04S
MARION*        CLOUDY    72  55  54 NW10      30.06F
HILLSVILLE*    CLOUDY    71  57  61 NW8       30.03F
RICHLANDS*     FAIR      68  57  68 NW3       30.07F
WISE*          MOSUNNY   68  52  56 N5        30.09S
ABINGDON*      MOSUNNY   73  58  59 NW5       30.03F
$$

MDZ021>025-VAZ099-100-222300-
SOUTHERN MARYLAND AND THE DELMARVA PENINSULA

CITY           SKY/WX    TMP DP  RH WIND       PRES   REMARKS
PATUXENT RIVER CLOUDY    67  67 100 CALM      29.95F
BAY BRIDGE APT CLOUDY    64  63  94 CALM      29.97S
LEONARDTOWN    CLOUDY    66  63  88 E3        29.96F
DOVER          CLOUDY    65  65 100 CALM      29.95F
GEORGETOWN     LGT RAIN  70  67  90 S5        29.96F
EASTON         CLOUDY    70  64  83 CALM      30.00S
CAMBRIDGE      PTSUNNY   70  66  88 CALM      29.96S
SALISBURY      LGT RAIN  70  69  97 W3        29.96S
OCEAN CITY     LGT RAIN  68  66  93 W3        29.96F
WALLOPS ISLAND LGT RAIN  66  66 100 SE7       29.95F
ACCOMACK*      RAIN      68  54  60 SE3       29.95S
$$

NCZ012>017-030>032-222300-
NORTH CENTRAL AND EASTERN NORTH CAROLINA

CITY           SKY/WX    TMP DP  RH WIND       PRES   REMARKS
ROANOKE RAPIDS MOCLDY    73  66  78 NW5       29.95S
RALEIGH        CLOUDY    79  66  64 CALM      29.95F
ELIZABETH CITY CLOUDY    78  71  79 W15       29.92S
AHOSKIE*         N/A     74  67  77 N6        29.95R
EDENTON*       CLOUDY    81  68  63 NW7       29.93S
CURRITUCK*     CLOUDY    72  72 100 CALM      29.93F
KILL DEVIL HLS NOT AVBL
MANTEO         RAIN      73  61  66 N13G22    29.97R
CAPE HATTERAS  CLOUDY    79  69  71 S12       29.95F
TARBORO*       NOT AVBL
GOLDSBORO      CLOUDY    82  67  60 NW7       29.92S
WASHINGTON     PTSUNNY   82  67  58 NW12      29.93S
GREENVILLE     MOSUNNY   81  68  65 NW5       29.95S HAZE
NEW BERN       CLOUDY    79  72  79 S13       29.93S
WILMINGTON     PTSUNNY   82  70  66 SW10      29.95R
$$

VAZ048-222300-
ELSEWHERE

CITY           SKY/WX    TMP DP  RH WIND       PRES   REMARKS
HARRISBURG PA  CLOUDY    64  61  90 S3        29.95F
BALTIMORE      CLOUDY    66  64  93 E6        29.96R
ANNAPOLIS      CLOUDY    66  64  93 SE5       29.97S
ANDREWS AFB    CLOUDY    69  63  83 E5        29.95S
PHILADELPHIA   CLOUDY    65  62  90 S3        29.97S
HENDERSON NC   MOSUNNY   73  64  74 CALM      29.96S
GREENSBORO     CLOUDY    76  67  73 VRB3      29.95F
ROCKY MOUNT    CLOUDY    78  68  71 VRB7      29.94S
$$

VAZ100-222300-
MARINE

STATION/POSITION TIME  TEMP    WIND        PRES    WAVE   SWELL
                       AIR SEA DIR/SP/G            HT/PER HT/PER
                 (UTC) (F)     (DEG/KT/KT) (MB)    (FT/S) (FT/S)
CAPE MAY NJ      2142   65 62  230/  2/  2 1014.2S
LEWES DE         2142   66 62  140/  1/  1 1014.2F
15NM E FENWICK I 2150   61 58  250/  6/  6 1014.8F   3/ 6   3/ 6
OCEAN-CITY-INLET 2142   65 62   CALM  /  2 1014.7F
WACHAPREAGUE VA  2142   66 67   50/  4/  5 1013.6R
THOMAS POINT MD  2200   64 66   CALM  /  1   N/A
GOOSES REEF MD   2150   65      90/  2/  2 1015.2F
COVE POINT MD    2142   65     320/  1/  2 1015.0F
SOLOMONS ISLAND  2142   65 67   90/  2/  3   N/A
BISHOPS HEAD MD  2142   68 68  340/  4/  5 1014.7F
PINEY POINT MD   2136          100/  4/  5   N/A
POTOMAC MD       2150   67      30/  8/  8 1013.1F
CAMBRIDGE MD     2142   70 69                N/A
LEWISETTA VA     2142   67 70   30/  4/  6 1014.2F
RAPPAHANNOCK LGT 2136           80/  7/  8 1014.5R
STINGRAY PT      2150   67      70/ 12/ 14 1013.5R
YORK RVR RNG VA  2142   70      10/ 13/ 15 1012.4R
YORKTOWN VA      2142   70 70  350/  8/ 10 1013.1R
JAMESTOWN VA     2150   72     350/  6/  8   N/A
DOMINION TERM VA 2142   70     320/ 11/ 13 1013.2R
KIPTOPEKE VA     2136      67   80/  5/  9   N/A
CHES BAY BRIDGE  2142   69 67  290/ 15/ 17 1011.8R
CAPE HENRY VA    2142   71     250/ 11/ 17   N/A
WILLOUBY STN VA  2142   69     330/ 16/ 18 1012.6R
S CRANEY ISL VA  2142   72     300/  7/ 14 1012.9R
CAPE HENRY BUOY  2142      62                N/A     3/ 5
1ST LANDING BUOY 2150   70                 1011.9R
CAPE CHARLES BUO 2151      64                N/A     4/ 7
64NM E OF VA BCH 2150   71 69  180/ 17/ 19 1013.7F   4/ 8   3/ 8
DUCK PIER NC     2142   67 66   30/  2/  3 1013.3F
44100 DUCK FRF   2105      66                N/A     4/ 7
44056 DUCK FRF   2100      67                N/A     4/ 6
OREGON INLET NC  2142   75 75  170/ 19/ 22 1013.3F
HATTERAS NC      2142   77 74  170/  8/ 15 1014.0F
DIAMOND SHLS NC  2150   78 78  190/ 14/ 17 1014.2F   4/ 8   3/ 8
CAPE LOOKOUT NC  2200   77     200/ 14/ 17 1013.9F
$$




USA.gov is the U.S. government's official web portal to all federal, state and local government web resources and services.